Weather History for Clinton-Sherman, OK

Change the Weather History Date:

Monday, April 22, 2013

  Actual Average Record
Temperature  
Mean Temperature 64 °F -  
Max Temperature 79 °F 70 °F 89 °F (2009)
Min Temperature 46 °F 47 °F 37 °F (1998)
Growing Degree Days 14 (Base 50)    
Moisture  
Dew Point 51 °F    
Average Humidity 70    
Maximum Humidity 90    
Minimum Humidity 47    
Precipitation  
Precipitation 0.00 in - - ()
Sea Level Pressure  
Sea Level Pressure 29.87 in    
Wind  
Wind Speed 19 mph (SSE)    
Max Wind Speed 26 mph    
Max Gust Speed 37 mph    
Visibility 10 miles    
Events      
Averages and records for this station are not official NWS values.
T = Trace of Precipitation, MM = Missing Value Source: NWS Daily Summary

Daily Weather History Graph

Daily Weather History Graph

Search for Another Location

Airport:

Trip Planner

Search our weather history database for the weather conditions in past years. The results will help you decide how hot, cold, wet, or windy it might be!

Date:

Astronomy

Apr. 22, 2013 Rise Set
Actual Time 6:55 AM CDT 8:15 PM CDT
Civil Twilight 6:28 AM CDT 8:42 PM CDT
Nautical Twilight 5:56 AM CDT 9:14 PM CDT
Astronomical Twilight 5:23 AM CDT 9:47 PM CDT
Moon 5:12 PM CDT (4/22) 4:43 AM CDT (4/22)
Length of Visible Light 14h 13m
Length of Day
13h 20m
Waxing Gibbous, 88% of the Moon is Illuminated
Apr 22
Waxing Gibbous
Apr 25
Full
May 2
Last Quarter
May 9
New
May 17
First Quarter

Hourly Weather History & Observations

Time (CDT) Temp. Dew Point Humidity Pressure Visibility Wind Dir Wind Speed Gust Speed Precip Events Conditions
12:53 AM 53.1 °F 46.9 °F 80% 30.03 in 10.0 mi SSE 13.8 mph - N/A   Clear
1:53 AM 50.0 °F 46.0 °F 86% 30.03 in 10.0 mi SSE 11.5 mph - N/A   Clear
2:53 AM 53.1 °F 46.9 °F 80% 29.99 in 10.0 mi SSE 16.1 mph - N/A   Clear
3:53 AM 53.1 °F 46.9 °F 80% 29.98 in 10.0 mi SSE 18.4 mph - N/A   Clear
4:53 AM 53.1 °F 46.0 °F 77% 29.98 in 10.0 mi SSE 17.3 mph - N/A   Clear
5:53 AM 54.0 °F 45.0 °F 72% 29.96 in 10.0 mi SSE 19.6 mph - N/A   Scattered Clouds
6:53 AM 54.0 °F 45.0 °F 72% 29.94 in 10.0 mi SSE 26.5 mph 32.2 mph N/A   Clear
7:53 AM 53.1 °F 46.0 °F 77% 29.93 in 10.0 mi SSE 23.0 mph 29.9 mph N/A   Clear
8:53 AM 55.9 °F 48.9 °F 77% 29.94 in 10.0 mi South 19.6 mph 26.5 mph N/A   Clear
9:53 AM 59.0 °F 52.0 °F 78% 29.94 in 10.0 mi South 23.0 mph 31.1 mph N/A   Mostly Cloudy
10:53 AM 61.0 °F 53.1 °F 75% 29.92 in 10.0 mi South 21.9 mph 29.9 mph N/A   Overcast
11:53 AM 63.0 °F 54.0 °F 72% 29.92 in 10.0 mi South 26.5 mph 29.9 mph N/A   Overcast
12:53 PM 69.1 °F 57.0 °F 65% 29.89 in 10.0 mi South 20.7 mph 32.2 mph N/A   Overcast
1:53 PM 70.0 °F 57.0 °F 63% 29.84 in 10.0 mi South 20.7 mph 29.9 mph N/A   Mostly Cloudy
2:23 PM 73.4 °F 57.2 °F 57% 29.86 in 10.0 mi South 20.7 mph 32.2 mph N/A   Scattered Clouds
2:53 PM 73.9 °F 57.0 °F 55% 29.81 in 10.0 mi South 24.2 mph 29.9 mph N/A   Scattered Clouds
3:53 PM 77.0 °F 55.9 °F 48% 29.76 in 10.0 mi South 24.2 mph 33.4 mph N/A   Clear
4:53 PM 79.0 °F 57.0 °F 47% 29.73 in 10.0 mi South 20.7 mph 26.5 mph N/A   Clear
5:53 PM 77.0 °F 57.0 °F 50% 29.71 in 10.0 mi SE 25.3 mph 32.2 mph N/A   Clear
6:53 PM 75.0 °F 57.0 °F 53% 29.69 in 10.0 mi SSE 23.0 mph 31.1 mph N/A   Clear
7:53 PM 72.0 °F 55.9 °F 57% 29.68 in 10.0 mi SE 18.4 mph - N/A   Clear
8:53 PM 69.1 °F 55.0 °F 61% 29.68 in 10.0 mi SE 18.4 mph - N/A   Clear
9:53 PM 66.0 °F 54.0 °F 65% 29.74 in 10.0 mi North 12.7 mph - N/A   Clear
10:12 PM 66.2 °F 55.4 °F 68% 29.82 in 10.0 mi NE 13.8 mph - N/A   Clear
10:53 PM 54.0 °F 48.0 °F 80% 29.85 in 10.0 mi North 20.7 mph 36.8 mph N/A   Mostly Cloudy
11:06 PM 50.0 °F 46.4 °F 87% 29.89 in 10.0 mi North 18.4 mph 27.6 mph N/A   Mostly Cloudy
11:15 PM 50.0 °F 46.4 °F 87% 29.89 in 10.0 mi North 21.9 mph 31.1 mph N/A   Overcast
11:53 PM 46.9 °F 44.1 °F 90% 29.90 in 10.0 mi North 21.9 mph 34.5 mph N/A   Overcast